Weather History for LIMU - December, 2012

Change the Weather History Date:

Tuesday, December 11, 2012

  Actual Average Record
Temperature  
Mean Temperature 48 °F -  
Max Temperature 53 °F 52 °F - ()
Min Temperature 41 °F 44 °F - ()
Degree Days  
Heating Degree Days 16    
Moisture  
Dew Point 21 °F    
Average Humidity 34    
Maximum Humidity 58    
Minimum Humidity 11    
Precipitation  
Precipitation 0.00 in 0.09 in - ()
Sea Level Pressure  
Sea Level Pressure 29.90 in    
Wind  
Wind Speed 9 mph ()    
Max Wind Speed 26 mph    
Max Gust Speed 38 mph    
Visibility 6.2 miles    
Events      
T = Trace of Precipitation, MM = Missing Value Source: Averaged Metar Reports

Daily Weather History Graph

Daily Weather History Graph

Search for Another Location

Airport or City:

Trip Planner

Search our weather history database for the weather conditions in past years. The results will help you decide how hot, cold, wet, or windy it might be!

Date:

Astronomy

Dec. 11, 2012 Rise Set
Actual Time 7:52 AM CET 4:49 PM CET
Civil Twilight 7:19 AM CET 5:22 PM CET
Nautical Twilight 6:42 AM CET 5:58 PM CET
Astronomical Twilight 6:07 AM CET 6:33 PM CET
Moon 5:25 AM CET (12/11) 3:16 PM CET (12/11)
Length of Visible Light 10h 03m
Length of Day
8h 57m
Waning Crescent, 5% of the Moon is Illuminated
Dec 11
Waning Crescent
Dec 13
New
Dec 20
First Quarter
Dec 28
Full
Jan 5
Last Quarter

Hourly Weather History & Observations

Time (CET) Temp. Windchill Dew Point Humidity Pressure Visibility Wind Dir Wind Speed Gust Speed Precip Events Conditions
12:55 AM 46.4 °F 41.5 °F 10.4 °F 23% 29.86 in - North 10.4 mph - N/A   Clear
1:00 AM 47 °F - 10 °F 11% 29.88 in 31 mi North 10.4 mph - -  
1:55 AM 46.4 °F 42.4 °F 14.0 °F 27% 29.86 in - NNE 8.1 mph - N/A   Clear
2:55 AM 46.4 °F 43.5 °F 12.2 °F 25% 29.86 in - North 5.8 mph - N/A   Clear
3:55 AM 46.4 °F 43.5 °F 15.8 °F 29% 29.86 in - NE 5.8 mph - N/A   Clear
4:55 AM 46.4 °F 45.2 °F 19.4 °F 34% 29.86 in - North 3.5 mph - N/A   Clear
5:55 AM 46.4 °F 43.5 °F 19.4 °F 34% 29.86 in - NE 5.8 mph - N/A   Clear
6:55 AM 46.4 °F - 21.2 °F 37% 29.86 in - NE 2.3 mph - N/A   Clear
7:00 AM 46 °F - 21 °F 24% 29.88 in 31 mi NE 2.3 mph - -  
8:55 AM 46.4 °F 42.9 °F 23.0 °F 40% 29.86 in 6.2 mi North 6.9 mph - N/A   Scattered Clouds
9:55 AM 50.0 °F - 23.0 °F 35% 29.86 in 6.2 mi North 11.5 mph - N/A   Scattered Clouds
10:55 AM 50.0 °F - 19.4 °F 30% 29.86 in 6.2 mi NNE 10.4 mph - N/A   Scattered Clouds
11:55 AM 48.2 °F - 21.2 °F 34% 29.89 in 6.2 mi SSW 8.1 mph - N/A   Partly Cloudy
12:55 PM 51.8 °F - 32.0 °F 47% 29.86 in - South 11.5 mph - N/A   Clear
1:00 PM 52 °F - 31 °F 32% 29.89 in 31 mi South 11.5 mph - -   Scattered Clouds
1:55 PM 51.8 °F - 33.8 °F 50% 29.86 in - SW 8.1 mph - N/A   Clear
2:55 PM 48.2 °F - 33.8 °F 58% 29.86 in - South 3.5 mph - N/A   Clear
3:55 PM 48.2 °F - 30.2 °F 50% 29.86 in - West 4.6 mph - N/A   Clear
5:55 PM 46.4 °F 39.5 °F 24.8 °F 43% 29.92 in - North 17.3 mph - N/A   Clear
6:55 PM 46.4 °F 39.2 °F 21.2 °F 37% 29.92 in - North 18.4 mph - N/A   Clear
7:00 PM 46 °F - 21 °F 24% 29.96 in 31 mi North 18.4 mph - -  
7:55 PM 44.6 °F 36.6 °F 17.6 °F 34% 29.98 in - North 19.6 mph - N/A   Clear
8:55 PM 44.6 °F 35.5 °F 15.8 °F 31% 29.98 in - North 25.3 mph 36.8 mph N/A   Clear
9:55 PM 44.6 °F 35.9 °F 17.6 °F 34% 30.01 in - North 23.0 mph - N/A   Clear
10:55 PM 44.6 °F 35.7 °F 17.6 °F 34% 30.04 in - North 24.2 mph 35.7 mph N/A   Clear
11:55 PM 41.0 °F 30.5 °F 10.4 °F 29% 30.04 in - North 26.5 mph 38.0 mph N/A   Clear